Location: Albert
(44.3172°N, 77.1347°W)
Time: 06:04:49
(UTC+00:00)

N. Korean satellite - Visible Passes

Search period start: 21 October 2021 00:00
Search period end: 31 October 2021 00:00
Orbit: 450 x 495 km, 97.3° (Epoch: 20 October)

Date Brightness Start Highest point End Pass type
(mag) Time Alt. Az. Time Alt. Az. Time Alt. Az.
21 Oct 7.8 10:08:31 10° NNE 10:12:04 46° E 10:15:35 10° S visible
22 Oct 9.3 09:41:00 10° NE 09:43:52 21° E 09:46:42 10° SE visible
23 Oct 10.3 09:15:17 10° E 09:15:32 10° E 09:15:47 10° E visible
23 Oct 6.6 10:45:30 10° N 10:49:06 57° WNW 10:52:40 10° SSW visible
24 Oct 7.2 10:17:24 10° NNE 10:21:02 61° E 10:24:36 10° S visible
25 Oct 8.9 09:49:40 10° NE 09:52:50 27° E 09:55:57 10° SSE visible
26 Oct 10.0 09:22:46 10° ENE 09:24:31 13° E 09:26:13 10° ESE visible
26 Oct 6.9 10:54:28 10° N 10:57:57 43° WNW 11:01:24 10° SW visible
27 Oct 6.7 10:26:14 10° NNE 10:29:54 80° ESE 10:33:29 10° S visible
27 Oct 9.9 22:36:16 10° SW 22:38:31 16° W 22:40:47 10° NW visible
28 Oct 8.4 09:58:20 10° NNE 10:01:42 34° E 10:05:00 10° SSE visible
29 Oct 9.7 09:31:03 10° NE 09:33:23 16° E 09:35:42 10° SE visible
29 Oct 7.2 11:03:23 10° N 11:06:43 34° WNW 11:09:59 10° SW visible
30 Oct 6.5 10:35:01 10° N 10:38:40 78° WNW 10:42:13 10° SSW visible
30 Oct 10.2 22:45:45 10° WSW 22:47:21 12° W 22:48:58 10° WNW visible
